Location: Pasadena-CA
(34.1440°N, 118.1100°W)
Time: 22:02:58
(UTC-07:00)

FALCONSAT 3 - Pass Details

Date: 03 July 2022
Orbit: 392 x 398 km, 35.4° (Epoch: 17 August)

Event Time Altitude Azimuth Distance (km) Brightness Sun altitude
Rises 22:29:30 0° 277° (W) 2,330 ? -23.1°
Reaches altitude 10° 22:31:38 10° 280° (W) 1,464 ? -23.3°
Enters shadow 22:33:42 34° 289° (WNW) 681 ? -23.6°
